Regional Weather Roundup
Issued by NWS Jackson, KY

Home | Current Version | Previous Version | Graphics & Text | Print | Product List | Glossary On
Versions: 1 2 3 4 5 6 7 8 9 10 11 12 13 14 15 16 17 18 19 20 21 22 23 24 25 26 27 28 29 30 31 32 33 34 35 36 37 38 39 40 41 42 43 44 45 46 47 48 49 50
000
ASUS43 KJKL 180110
RWRJKL

EAST KENTUCKY HOURLY WEATHER ROUNDUP
NATIONAL WEATHER SERVICE JACKSON KY
900 PM EDT FRI APR 17 2015

NOTE: "FAIR" INDICATES FEW OR NO CLOUDS BELOW 12,000 FEET WITH
NO SIGNIFICANT WEATHER AND/OR OBSTRUCTIONS TO VISIBILITY.

* THESE REPORTS ARE NOT UNDER NWS QUALITY CONTROL AND MAY NOT
  REPORT WEATHER SUCH AS PRECIPITATION AND FOG.

KYZ079-080-083-085-087-088-110-112-115-119-120-180200
...EASTERN KENTUCKY...

CITY           SKY/WX    TMP DP  RH WIND       PRES   REMARKS
JACKSON        CLOUDY    68  54  60 NE3       30.02R
LONDON         PTCLDY    68  55  63 N3        30.02R
SOMERSET*      CLOUDY    64  55  72 CALM      30.03S
MONTICELLO*    MOCLDY    62  60  93 CALM      30.05R
MIDDLESBORO*   CLOUDY    67  58  73 CALM      30.02S
HARLAN APT*    CLOUDY    70  54  56 NE8       30.03R
HAZARD APT*    CLEAR     70  54  56 CALM      30.02
PIKEVILLE APT* CLEAR     68  54  60 N5        30.02S
BIG SANDY*     CLOUDY    69  56  62 CALM      30.02R
MOREHEAD APT*  CLOUDY    66  57  72 CALM      30.04R
$$

KYZ035-036-041-042-044-050-067-078-099-180200
...CENTRAL KENTUCKY...

CITY           SKY/WX    TMP DP  RH WIND       PRES   REMARKS
MT STERLING*   CLOUDY    64  59  82 CALM      30.04R
FLEMING/MASON* CLEAR     66  59  77 CALM      30.04R
DANVILLE*      MOCLDY    63  57  82 CALM      30.04R
RICHMOND*      MOCLDY    66  57  72 CALM      30.02S
LEXINGTON      CLOUDY    66  59  78 CALM      30.03R
FRANKFORT      CLOUDY    65  58  78 CALM      30.01R
$$

KYZ091>093-OHZ055-061-077-WVZ005-015-034-035-042-180200
...SOUTHERN OHIO/WEST VIRGINIA...

CITY           SKY/WX    TMP DP  RH WIND       PRES   REMARKS
COVINGTON      MOCLDY    68  46  45 CALM      30.03R
COLUMBUS       CLOUDY    66  42  41 N5        30.02R
DAYTON         MOCLDY    67  39  35 N6        30.05R
WILMINGTON     MOCLDY    65  41  41 CALM      30.02S
HUNTINGTON     CLOUDY    70  55  59 CALM      30.00R
CHARLESTON     MOCLDY    69  55  60 CALM      30.00R
PINEVILLE*     CLOUDY    62  57  83 MISG      30.08R
BECKLEY        CLOUDY    65  51  60 CALM      30.06R
BLUEFIELD      CLOUDY    67  47  48 CALM      30.07R
$$

VAZ002-007-008-TNZ017-027-036-066-071-180200
...SOUTHWEST VIRGINIA/EAST TENNESSEE...

CITY           SKY/WX    TMP DP  RH WIND       PRES   REMARKS
WISE*          CLOUDY    66  50  55 CALM      30.08S
JONESVILLE*    CLOUDY    68  59  73 CALM      30.04S
ABINGDON*      CLOUDY    68  56  66 W3        30.05R
BRISTOL        CLOUDY    67  58  72 CALM      30.02S
KNOXVILLE      CLOUDY    64  60  87 NW7       30.01R
OAK RIDGE      CLOUDY    67  60  78 CALM      30.03R
CROSSVILLE     CLOUDY    63  57  81 CALM      30.05R
NASHVILLE      MOCLDY    66  61  84 CALM      30.02R
$$

...KEY TO REMARKS...
VSB - VISIBILITY IN MILES
WCI - WIND CHILL INDEX
HX  - HEAT INDEX

$$


USA.gov is the U.S. government's official web portal to all federal, state and local government web resources and services.